• Em Portugal
  • Lista de países
  • Para 7 dias
  • Temperatura da água
  • Mapas de satélite
  • Mapa do tempo
  • Widgets de tempo
  • user-avatar
    Iniciar Sessão

    Previsão horária em Barisal

    Hoje, 21 Junho, Quinta-feira

    Tempo Temperatura Precipitação Vento Pressão Humidade
    00:00 +32°C° 0 mm 1 m/s 751 mmHg 74%
    01:00 +32°C° 0 mm 1 m/s 751 mmHg 75%
    02:00 +32°C° 0 mm 1 m/s 751 mmHg 75%
    03:00 +32°C° 0 mm 2 m/s 751 mmHg 75%
    04:00 +32°C° 0,1 mm 2 m/s 751 mmHg 75%
    05:00 +32°C° 0,1 mm 2 m/s 751 mmHg 75%
    06:00 +32°C° 0 mm 2 m/s 751 mmHg 75%
    07:00 +34°C° 0 mm 2 m/s 751 mmHg 69%
    08:00 +35°C° 0 mm 3 m/s 752 mmHg 64%
    09:00 +37°C° 0 mm 3 m/s 752 mmHg 58%
    10:00 +37°C° 0 mm 4 m/s 751 mmHg 56%
    11:00 +38°C° 0 mm 4 m/s 751 mmHg 53%
    12:00 +37°C° 0 mm 3 m/s 752 mmHg 57%
    13:00 +38°C° 0 mm 3 m/s 751 mmHg 54%
    14:00 +38°C° 0 mm 3 m/s 751 mmHg 51%
    15:00 +39°C° 0 mm 3 m/s 750 mmHg 48%
    16:00 +38°C° 0 mm 4 m/s 750 mmHg 51%
    17:00 +37°C° 0 mm 4 m/s 750 mmHg 54%
    18:00 +36°C° 0 mm 4 m/s 750 mmHg 59%
    19:00 +35°C° 0 mm 4 m/s 751 mmHg 62%
    20:00 +34°C° 0 mm 4 m/s 751 mmHg 65%
    21:00 +33°C° 0 mm 4 m/s 751 mmHg 67%
    22:00 +33°C° 0 mm 4 m/s 751 mmHg 69%
    23:00 +33°C° 0 mm 4 m/s 751 mmHg 70%

    Amanhã, 22 Junho, Sexta-feira

    Tempo Temperatura Precipitação Vento Pressão Humidade
    00:00 +31°C° 0 mm 3 m/s 751 mmHg 71%
    01:00 +31°C° 0 mm 3 m/s 751 mmHg 73%
    02:00 +32°C° 0 mm 4 m/s 751 mmHg 75%
    03:00 +32°C° 0 mm 4 m/s 751 mmHg 76%
    04:00 +32°C° 0 mm 4 m/s 751 mmHg 77%
    05:00 +30°C° 0 mm 4 m/s 751 mmHg 79%
    06:00 +30°C° 0 mm 4 m/s 752 mmHg 80%
    07:00 +33°C° 0 mm 4 m/s 752 mmHg 74%
    08:00 +34°C° 0 mm 4 m/s 752 mmHg 68%
    09:00 +35°C° 0 mm 4 m/s 752 mmHg 62%
    10:00 +36°C° 0 mm 4 m/s 752 mmHg 60%
    11:00 +36°C° 0 mm 4 m/s 752 mmHg 59%
    12:00 +36°C° 0 mm 4 m/s 752 mmHg 57%
    13:00 +37°C° 0 mm 4 m/s 751 mmHg 55%
    14:00 +37°C° 0 mm 4 m/s 750 mmHg 54%
    15:00 +37°C° 0 mm 5 m/s 750 mmHg 52%
    16:00 +37°C° 0 mm 5 m/s 750 mmHg 55%
    17:00 +36°C° 0 mm 5 m/s 750 mmHg 57%
    18:00 +35°C° 0 mm 5 m/s 749 mmHg 60%
    19:00 +35°C° 0 mm 5 m/s 750 mmHg 63%
    20:00 +34°C° 0 mm 4 m/s 750 mmHg 66%
    21:00 +33°C° 0 mm 4 m/s 751 mmHg 69%
    22:00 +33°C° 0 mm 4 m/s 751 mmHg 71%
    23:00 +32°C° 0 mm 4 m/s 751 mmHg 73%

    Depois de amanhã, 23 Junho, Sábado

    Tempo Temperatura Precipitação Vento Pressão Humidade
    00:00 +32°C° 0 mm 4 m/s 751 mmHg 74%
    01:00 +32°C° 0 mm 4 m/s 751 mmHg 76%
    02:00 +31°C° 0 mm 3 m/s 750 mmHg 77%
    03:00 +31°C° 0 mm 3 m/s 750 mmHg 79%
    04:00 +31°C° 0 mm 3 m/s 750 mmHg 79%
    05:00 +31°C° 0 mm 3 m/s 750 mmHg 80%
    06:00 +31°C° 0 mm 3 m/s 751 mmHg 80%
    07:00 +33°C° 0,1 mm 4 m/s 751 mmHg 74%
    08:00 +34°C° 0,1 mm 4 m/s 751 mmHg 68%
    09:00 +36°C° 0,1 mm 4 m/s 752 mmHg 61%
    10:00 +36°C° 0,4 mm 5 m/s 751 mmHg 58%
    11:00 +37°C° 0,4 mm 5 m/s 751 mmHg 55%
    12:00 +39°C° 0,4 mm 5 m/s 750 mmHg 52%
    13:00 +39°C° 0,9 mm 6 m/s 750 mmHg 53%
    14:00 +39°C° 0,9 mm 6 m/s 750 mmHg 54%
    15:00 +38°C° 0,9 mm 6 m/s 749 mmHg 55%
    16:00 +38°C° 0,2 mm 7 m/s 749 mmHg 57%
    17:00 +36°C° 0,2 mm 7 m/s 749 mmHg 59%
    18:00 +35°C° 0,2 mm 7 m/s 749 mmHg 61%
    19:00 +34°C° 0 mm 7 m/s 749 mmHg 65%
    20:00 +33°C° 0 mm 7 m/s 749 mmHg 69%
    21:00 +32°C° 0 mm 7 m/s 750 mmHg 73%
    22:00 +32°C° 0 mm 7 m/s 750 mmHg 75%
    23:00 +32°C° 0 mm 6 m/s 750 mmHg 77%

    24 Junho, Domingo

    Tempo Temperatura Precipitação Vento Pressão Humidade
    00:00 +32°C° 0 mm 6 m/s 750 mmHg 79%
    01:00 +32°C° 0,2 mm 5 m/s 750 mmHg 79%
    02:00 +32°C° 0,2 mm 5 m/s 750 mmHg 80%
    03:00 +32°C° 0,2 mm 5 m/s 750 mmHg 81%
    04:00 +32°C° 0,1 mm 5 m/s 749 mmHg 81%
    05:00 +32°C° 0,1 mm 5 m/s 749 mmHg 81%
    06:00 +32°C° 0,1 mm 6 m/s 749 mmHg 80%
    07:00 +33°C° 0,1 mm 6 m/s 750 mmHg 75%
    08:00 +34°C° 0,1 mm 6 m/s 750 mmHg 70%
    09:00 +35°C° 0,1 mm 6 m/s 751 mmHg 64%
    10:00 +36°C° 0 mm 6 m/s 750 mmHg 60%
    11:00 +38°C° 0 mm 6 m/s 750 mmHg 57%
    12:00 +39°C° 0 mm 6 m/s 750 mmHg 53%
    13:00 +39°C° 0 mm 7 m/s 750 mmHg 53%
    14:00 +39°C° 0 mm 7 m/s 749 mmHg 52%
    15:00 +39°C° 0 mm 7 m/s 748 mmHg 52%
    16:00 +38°C° 0 mm 6 m/s 748 mmHg 56%
    17:00 +36°C° 0 mm 6 m/s 748 mmHg 60%
    18:00 +35°C° 0 mm 6 m/s 748 mmHg 64%
    19:00 +34°C° 0 mm 6 m/s 749 mmHg 67%
    20:00 +33°C° 0 mm 6 m/s 749 mmHg 71%
    21:00 +33°C° 0 mm 6 m/s 750 mmHg 74%
    22:00 +32°C° 0 mm 6 m/s 750 mmHg 75%
    23:00 +32°C° 0 mm 6 m/s 750 mmHg 76%

    25 Junho, Segunda-feira

    Tempo Temperatura Precipitação Vento Pressão Humidade
    00:00 +32°C° 0 mm 6 m/s 750 mmHg 78%
    01:00 +32°C° 0 mm 6 m/s 749 mmHg 79%
    02:00 +32°C° 0 mm 5 m/s 749 mmHg 80%
    03:00 +32°C° 0 mm 5 m/s 748 mmHg 81%
    04:00 +32°C° 0,2 mm 5 m/s 749 mmHg 81%
    05:00 +32°C° 0,2 mm 4 m/s 749 mmHg 82%
    06:00 +32°C° 0,2 mm 4 m/s 749 mmHg 83%
    07:00 +33°C° 0,2 mm 5 m/s 749 mmHg 76%
    08:00 +35°C° 0,2 mm 5 m/s 750 mmHg 69%
    09:00 +36°C° 0,2 mm 6 m/s 750 mmHg 62%
    10:00 +38°C° 0,5 mm 6 m/s 750 mmHg 58%
    11:00 +39°C° 0,5 mm 6 m/s 749 mmHg 54%
    12:00 +40°C° 0,5 mm 6 m/s 749 mmHg 50%
    13:00 +40°C° 0,4 mm 7 m/s 749 mmHg 51%
    14:00 +39°C° 0,4 mm 7 m/s 748 mmHg 52%
    15:00 +39°C° 0,4 mm 7 m/s 748 mmHg 53%
    16:00 +38°C° 1,9 mm 6 m/s 748 mmHg 57%
    17:00 +36°C° 1,9 mm 6 m/s 747 mmHg 61%
    18:00 +34°C° 1,9 mm 6 m/s 747 mmHg 65%
    19:00 +34°C° 1,9 mm 5 m/s 748 mmHg 68%
    20:00 +33°C° 1,9 mm 5 m/s 749 mmHg 72%
    21:00 +32°C° 1,9 mm 4 m/s 749 mmHg 75%
    22:00 +32°C° 0,2 mm 4 m/s 749 mmHg 77%
    23:00 +32°C° 0,2 mm 4 m/s 749 mmHg 78%

    26 Junho, Terça-feira

    Tempo Temperatura Precipitação Vento Pressão Humidade
    00:00 +32°C° 0,2 mm 4 m/s 749 mmHg 80%
    01:00 +32°C° 0,1 mm 4 m/s 748 mmHg 80%
    02:00 +32°C° 0,1 mm 4 m/s 748 mmHg 80%
    03:00 +32°C° 0,1 mm 4 m/s 748 mmHg 81%
    04:00 +32°C° 0 mm 4 m/s 748 mmHg 80%
    05:00 +32°C° 0 mm 4 m/s 748 mmHg 80%
    06:00 +30°C° 0 mm 4 m/s 748 mmHg 80%
    07:00 +33°C° 0,2 mm 5 m/s 749 mmHg 73%
    08:00 +34°C° 0,2 mm 5 m/s 749 mmHg 66%
    09:00 +36°C° 0,2 mm 5 m/s 750 mmHg 59%
    10:00 +36°C° 0,9 mm 5 m/s 749 mmHg 58%
    11:00 +37°C° 0,9 mm 5 m/s 749 mmHg 57%
    12:00 +38°C° 0,9 mm 6 m/s 749 mmHg 55%
    13:00 +38°C° 0,2 mm 6 m/s 749 mmHg 54%
    14:00 +39°C° 0,2 mm 6 m/s 748 mmHg 53%
    15:00 +39°C° 0,2 mm 6 m/s 748 mmHg 52%
    16:00 +38°C° 0 mm 6 m/s 748 mmHg 55%
    17:00 +36°C° 0 mm 6 m/s 748 mmHg 58%
    18:00 +35°C° 0 mm 6 m/s 748 mmHg 61%
    19:00 +34°C° 0 mm 6 m/s 748 mmHg 65%
    20:00 +33°C° 0 mm 5 m/s 749 mmHg 68%
    21:00 +33°C° 0 mm 5 m/s 749 mmHg 72%
    22:00 +32°C° 0,2 mm 5 m/s 749 mmHg 74%
    23:00 +32°C° 0,2 mm 4 m/s 749 mmHg 77%
    Mostrar mais